Terug naar catalogus

KUIPER-00615

ActiefCommunicatieLEO
NORAD 69774·PAYLOAD·🇺🇸 United States

Gelanceerd Jul 2, 2026 vanaf Cape Canaveral Space Force Station

Loading…

Volgende Passages (komende 24 uur)

TLE

VersSource: CelesTrak SupGP

Epoch: Sep 14, 2026, 22:02 UTC

1 69774C 26151M   26257.91849537  .00032272  00000+0  42279-2 0  2574
2 69774  51.9001 258.8121 0001301 125.5961  75.1690 14.79864855    18

Volg KUIPER-00615 in realtime met AllMySat

Download on the App Store